Preview of NWS' New Version of Forecast
This preview is not operational and should not be used for support decisions.

Regional Weather Roundup (RWR)

Issued by National Weather Service (NWS)

                            
000
ASUS46 KPQR 182310
RWROR 

OREGON REGIONAL WEATHER ROUNDUP
NATIONAL WEATHER SERVICE PORTLAND OR
300 PM PST MON FEB 18 2019

NOTE: "FAIR" INDICATES FEW OR NO CLOUDS BELOW 12,000 FEET WITH
NO SIGNIFICANT WEATHER AND/OR OBSTRUCTIONS TO VISIBILITY.

ORZ001>013-190000-
NORTHWEST OREGON

  
CITY           SKY/WX    TMP DP  RH WIND       PRES   REMARKS
ASTORIA        PTSUNNY   45  39  79 W8        30.38F                  
TILLAMOOK      CLOUDY    45  36  70 W6        30.42F                  
NEWPORT        CLOUDY    45  34  65 SW6       30.44F                  
PORTLAND       PTSUNNY   43  33  68 N3        30.40F                  
VANCOUVER WA   CLOUDY    43  33  68 CALM      30.40F                  
SCAPPOOSE      CLOUDY    43  35  73 SE6       30.39F                  
HILLSBORO      CLOUDY    41  35  79 N5        30.39F                  
AURORA         PTSUNNY   41  35  79 SW5       30.41F                  
MCMINNVILLE    PTSUNNY   42  37  82 SE3       30.40F                  
SALEM          PTSUNNY   45  31  58 CALM      30.40F                  
CORVALLIS      CLOUDY    42  36  79 SW3       30.42F                  
EUGENE         CLOUDY    44  32  62 N3        30.41F                  
$$

ORZ021-028-190000-
SOUTHWEST OREGON

  
CITY           SKY/WX    TMP DP  RH WIND       PRES   REMARKS
NORTH BEND     SUNNY     48  38  68 N13       30.42F                  
BROOKINGS      SUNNY     52  32  46 NW7       30.32F                  
ROSEBURG       SUNNY     46  30  53 VRB6      30.39F                  
SEXTON SUMMIT  MIX PCPN  29  27  92 VRB3      30.24F                  
GRANTS PASS    FAIR      46  25  42 NW7       30.36                   
MEDFORD        MOSUNNY   43  25  49 NE6       30.32F                  
$$

ORZ014>016-041-190000-
COLUMBIA GORGE

  
CITY           SKY/WX    TMP DP  RH WIND       PRES   REMARKS
TROUTDALE      CLOUDY    44  33  65 VRB3      30.40F                  
HOOD RIVER     CLOUDY    41  30  65 CALM      30.33F                  
THE DALLES     CLOUDY    36  28  73 NE5       30.36F                  
$$

ORZ029>031-041-044-049-050-061>064-502-503-505>511-190000-
EASTERN OREGON

  
CITY           SKY/WX    TMP DP  RH WIND       PRES   REMARKS
MADRAS         NOT AVBL                                               
REDMOND        SUNNY     39  19  44 CALM      30.23F                  
BEND           SUNNY     37  14  38 NE3       30.22F                  
PRINEVILLE     SUNNY     36  16  44 W6G12     30.23F                  
KLAMATH FALLS  SUNNY     35  16  45 NW9       30.18F                  
LAKEVIEW       SUNNY     33  13  43 N12       30.14F WCI  24          
HERMISTON      MOSUNNY   36  23  59 CALM      30.34F                  
PENDLETON      CLOUDY    31  23  72 CALM      30.30F                  
JOHN DAY       SUNNY     32  16  51 NW7       30.19                   
MEACHAM        FLURRIES  22  16  78 VRB3      30.18F                  
LA GRANDE      CLOUDY    29  18  63 NW13      30.25S WCI  19          
BAKER CITY     MOSUNNY   32  17  54 NW24      30.16F WCI  19          
BURNS          SUNNY     29  13  51 W12       30.15S WCI  19          
ROME             N/A     30  14  51 NW13      30.11F WCI  20          
ONTARIO        MOSUNNY   39  17  41 N16G22    30.20S WCI  30          
$$